TimeMST,TemperatureF,Dew PointF,Humidity,Sea Level PressureIn,VisibilityMPH,Wind Direction,Wind SpeedMPH,Gust SpeedMPH,PrecipitationIn,Events,Conditions,WindDirDegrees,DateUTC
12:53 AM,33.1,21.9,64,29.66,10.0,WSW,6.9,-,N/A,,Clear,240,2013-01-27 07:53:00
1:53 AM,32.0,24.1,73,29.66,10.0,Calm,Calm,-,N/A,,Clear,0,2013-01-27 08:53:00
2:53 AM,30.0,23.0,75,29.65,10.0,WNW,8.1,-,N/A,,Clear,290,2013-01-27 09:53:00
3:53 AM,30.0,24.1,79,29.64,10.0,WSW,8.1,-,N/A,,Clear,240,2013-01-27 10:53:00
4:53 AM,30.0,23.0,75,29.64,10.0,West,10.4,-,N/A,,Clear,270,2013-01-27 11:53:00
5:53 AM,28.9,23.0,78,29.68,10.0,West,12.7,-,N/A,,Clear,280,2013-01-27 12:53:00
6:53 AM,28.9,24.1,82,29.71,10.0,West,11.5,-,N/A,,Clear,280,2013-01-27 13:53:00
7:53 AM,30.9,25.0,79,29.73,10.0,West,12.7,-,N/A,,Clear,270,2013-01-27 14:53:00
8:53 AM,37.9,27.0,65,29.73,10.0,West,5.8,-,N/A,,Clear,260,2013-01-27 15:53:00
9:53 AM,46.0,28.9,51,29.73,10.0,NW,8.1,-,N/A,,Clear,310,2013-01-27 16:53:00
10:53 AM,51.1,30.0,44,29.71,10.0,ESE,4.6,-,N/A,,Clear,110,2013-01-27 17:53:00
11:53 AM,55.0,32.0,42,29.69,10.0,SE,4.6,-,N/A,,Clear,130,2013-01-27 18:53:00
12:53 PM,59.0,32.0,36,29.66,10.0,ESE,6.9,-,N/A,,Clear,110,2013-01-27 19:53:00
1:53 PM,62.1,32.0,32,29.65,10.0,ESE,5.8,-,N/A,,Clear,110,2013-01-27 20:53:00
2:53 PM,63.0,32.0,31,29.65,10.0,East,11.5,-,N/A,,Clear,80,2013-01-27 21:53:00
3:53 PM,62.1,32.0,32,29.65,10.0,East,11.5,-,N/A,,Clear,100,2013-01-27 22:53:00
4:53 PM,57.9,33.1,39,29.68,10.0,ESE,12.7,-,N/A,,Clear,110,2013-01-27 23:53:00
5:53 PM,51.1,33.1,50,29.72,10.0,ESE,9.2,-,N/A,,Clear,120,2013-01-28 00:53:00
6:53 PM,46.9,30.9,54,29.75,10.0,SE,8.1,-,N/A,,Clear,130,2013-01-28 01:53:00
7:53 PM,46.9,30.9,54,29.75,10.0,SE,10.4,-,N/A,,Clear,130,2013-01-28 02:53:00
8:53 PM,48.0,30.9,52,29.73,10.0,SSE,5.8,-,N/A,,Clear,160,2013-01-28 03:53:00
9:53 PM,45.0,30.0,56,29.71,10.0,South,4.6,-,N/A,,Clear,180,2013-01-28 04:53:00
10:53 PM,42.1,23.0,47,29.71,10.0,SSW,10.4,-,N/A,,Clear,200,2013-01-28 05:53:00
11:53 PM,43.0,21.9,43,29.70,10.0,South,10.4,-,N/A,,Clear,190,2013-01-28 06:53:00